Flag for United Kingdom Weather past 2 weeks in Worcester, England, United Kingdom

Now
44 °F

Quite cool.


Feels Like: 44 °F
Forecast: 42 / 69 °F
Wind: 1 mph from Northeast

Location: Pershore

Current Time: Jul 31, 2015 at 12:50:46 AM

Latest Report: Jul 31, 2015 at 12:00 AM


Visibility: 31 mi

Pressure: 30.18 "Hg

Humidity: 91%

Dew point: 42 °F

Location of WorcesterLocation

Historic Weather in Worcester — Graph

°F

Worcester temperature yesterday

Maximum temperature yesterday: 66 °F (at 5:00 PM)
Minimum temperature yesterday: 47 °F (at 11:00 PM)
Average temperature yesterday: 56 °F

Past Weeks' High & Low Weather Summary

 TemperatureHumidityPressure
High76 °F (Jul 16, 3:00 PM)100% (Jul 16, 5:00 AM)30.18 "Hg (Jul 16, 5:00 AM)
Low43 °F (Jul 16, 5:00 AM)40% (Jul 19, 5:00 PM)29.38 "Hg (Jul 26, 7:00 PM)
Average59 °F78%29.88 "Hg
* Reported Jul 15 11:00 PM — Jul 30 11:00 PM, Worcester, Weather by CustomWeather, © 2015

Note: Actual official high and low records may vary slightly from our data, if they occured in-between our weather recording intervals... More about our weather records

Advertising

Worcester weather history for previous 24 hours

 ConditionsComfort  
Time TempWeatherWind HumidityBarometerVisibility
11:00 PM
Thu, Jul 30
47 °FCool.2 mph85%30.18 "Hg22 mi
10:00 PM50 °FCool.3 mph76%30.16 "Hg28 mi
9:00 PM55 °FCool.5 mph66%30.15 "Hg28 mi
8:00 PM61 °FRefreshingly cool.7 mph52%30.14 "Hg28 mi
7:00 PM65 °FMild.7 mph46%30.13 "Hg22 mi
6:00 PM66 °FMild.8 mph46%30.13 "Hg25 mi
5:00 PM66 °FMild.8 mph46%30.13 "Hg18 mi
4:00 PM66 °FMild.9 mph47%30.13 "Hg19 mi
3:00 PM62 °FRefreshingly cool.9 mph51%30.13 "Hg28 mi
2:00 PM63 °FMild.9 mph52%30.13 "Hg16 mi
1:00 PM62 °FMild.9 mph50%30.12 "Hg14 mi
12:00 PM60 °FCool.9 mph61%30.11 "Hg28 mi
11:00 AM60 °FCool.9 mph60%30.11 "Hg16 mi
10:00 AM60 °FCool.9 mph64%30.10 "Hg28 mi
9:00 AM57 °FCool.8 mph73%30.09 "Hg13 mi
8:00 AM53 °FCool.7 mph83%30.08 "Hg22 mi
7:00 AM50 °FCool.3 mph93%30.08 "Hg25 mi
6:00 AM48 °FCool.6 mph91%30.06 "Hg19 mi
5:00 AM50 °FRain showers. Overcast.3 mph95%30.06 "Hg14 mi
4:00 AM48 °FCool.3 mph95%30.05 "Hg22 mi
3:00 AM50 °FCool.5 mph90%30.04 "Hg28 mi
2:00 AM50 °FCool.2 mph91%30.04 "Hg22 mi
1:00 AM50 °FCool.3 mph92%30.04 "Hg28 mi
12:00 AM52 °FCool.6 mph87%30.03 "Hg31 mi
Weather by CustomWeather, © 2015

See weather overviewHow to use our weather pages